Location: Newark
(54.6833°N, 25.2833°E)
Time: 08:54:50
(UTC+00:00)

Altair - Pass Details

Date: 20 November 2019
Orbit: 1502 x 1682 km, 47.2° (Epoch: 14 December)

Event Time Altitude Azimuth Distance (km) Brightness Sun altitude
Rises 07:47:31 0° 283° (WNW) 4,661 9.6 10.1°
Reaches altitude 10° 07:51:24 10° 269° (W) 3,694 9.2 10.4°
Maximum altitude 07:57:52 22° 224° (SW) 2,920 9.3 10.9°
Drops below altitude 10° 08:04:28 10° 180° (S) 3,773 10.9 11.4°
Sets 08:08:31 0° 165° (SSE) 4,786 11.9 11.6°
